sat.trackr.live / text

‹ back to catalog

HULIANWANG DIGUI-04

NORAD 62326 · 2024-240D

PAYLOAD ACTIVE UNKNOWN

§ Identity

Operator
Country
PRC
Launch date
2024-12-16
Launch site
WSC
Launch vehicle
Mass (kg)
RCS (m²)

External: N2YO · Heavens-Above · Gunter

§ Orbital elements

Epoch: 2026-05-25T04:01:17.786208Z

Period
108.73 min
Inclination
86.4992°
Eccentricity
0.0001362
Mean motion
13.24407940 rev/d
Perigee alt
1,166.9 km
Apogee alt
1,169.0 km
Semi-major
7,546.1 km
B*
2.9538e-5
RAAN
350.9523°
Arg perigee
86.4023°
Mean anomaly
273.7267°
Rev number
6,959

§ Raw data

HULIANWANG DIGUI-041 62326U 24240D   26145.16756697  .00000027  00000+0  29538-4 0  99952 62326  86.4992 350.9523 0001362  86.4023 273.7267 13.24407940 69598

JSON: /api/v1/satellites/62326 · /tle

For live sub-satellite position, see the globe view (requires WebGL).

§ Visibility from observer

Set your observer location to see the next 7 days of passes ≥ 10°. The values pass through the URL so the page stays shareable.

No JS? Fill the form by hand. The geolocation button needs JavaScript.